Temp
80 80 79 79 79 79 79 78 77 77 77 77 77 77 77 78 78 78 77 77 76 75 74 73 73 72 73 72 72 71 71 71 71 70 70 70 69 69 70 67 67 67
80 80 80 79 79 79 79 79 78 78 77 78 78 78 78 78 78 78 77 76 76 76 75 74 73 72 72 72 71 71 70 71 71 72 70 70 70 69 70 68 69 68
80 79 79 78 79 79 79 80 79 78 78 78 79 78 78 78 77 77 77 77 76 76 75 74 73 73 72 72 71 71 71 70 71 71 71 70 70 70 70 69 68 68
80 80 80 80 80 79 79 79 79 78 79 78 78 79 79 78 78 77 76 78 76 75 75 74 74 73 73 72 71 70 71 71 71 71 71 70 70 70 70 69 69 68
80 80 80 80 80 80 79 79 79 79 79 79 79 78 78 77 77 76 76 76 76 75 75 74 74 73 73 72 71 70 70 70 70 70 70 70 70 70 71 70 69 68
80 80 80 80 80 79 79 79 79 80 79 79 79 79 78 78 77 77 76 76 76 76 75 75 74 73 73 72 71 71 70 70 70 70 70 70 70 70 72 70 69 68
80 80 80 80 80 80 80 79 80 80 80 80 79 78 78 78 77 77 77 77 76 76 75 74 73 73 72 72 71 71 70 70 70 69 69 69 69 69 70 70 69 69
80 80 80 80 80 80 79 80 80 80 80 80 79 79 79 78 77 77 77 77 77 75 75 75 74 73 72 72 71 71 70 71 71 70 69 69 69 69 69 70 70 69
80 80 80 80 80 80 80 80 80 80 80 80 79 79 79 79 78 77 76 76 76 75 75 74 73 73 73 72 72 72 71 71 72 71 70 69 68 69 69 69 69 69
80 80 80 80 80 80 80 81 81 80 80 80 80 80 78 78 78 77 77 76 76 75 74 74 73 73 73 73 72 72 72 71 71 71 71 71 70 69 69 69 69 68
80 80 80 80 80 81 81 81 82 81 81 80 80 79 79 78 78 78 76 76 75 75 74 74 73 73 73 73 73 73 73 72 72 71 71 70 70 69 71 69 69 69
80 80 80 80 80 81 81 82 82 81 81 81 81 80 79 79 78 77 77 76 76 75 75 74 74 74 73 73 74 73 73 73 72 71 71 71 71 70 71 70 70 69
80 80 80 81 80 81 81 82 82 82 82 81 81 81 80 79 78 77 77 77 76 76 75 74 74 74 74 73 73 73 73 72 72 71 71 71 71 71 71 71 71 70
80 81 81 81 81 81 81 81 82 81 81 81 81 81 81 80 79 78 77 77 76 76 75 75 74 74 74 73 73 73 73 72 72 72 71 70 70 70 71 72 72 71
80 81 81 81 81 80 80 81 81 81 81 81 80 81 81 81 80 79 77 76 76 75 75 75 74 74 74 74 73 73 73 72 71 72 71 71 69 69 71 71 72 72
81 81 81 80 80 80 80 81 81 81 81 80 80 81 81 80 80 79 78 77 76 75 75 74 74 75 72 67 69 74 72 72 71 71 72 71 71 70 71 71 72 73
81 80 80 80 80 80 80 80 80 81 80 80 80 80 80 80 79 78 78 77 76 75 74 74 74 75 67 65 66 68 71 71 71 71 71 71 70 70 70 71 71 71
81 80 80 80 80 80 80 80 81 80 80 80 80 79 79 80 79 78 78 77 77 76 75 75 75 70 66 64 65 64 67 70 72 72 71 71 71 71 71 70 70 70
81 80 80 80 80 80 80 80 80 80 80 80 80 80 80 79 78 78 77 77 77 75 75 75 75 69 65 63 63 64 68 70 72 72 71 71 71 71 69 68 68 68
81 81 80 80 80 80 80 80 80 79 80 81 81 80 79 79 79 78 77 76 77 76 75 76 75 68 63 61 60 64 66 68 71 72 71 71 70 69 69 68 68 68
81 81 80 80 80 80 80 80 80 80 80 80 81 80 79 79 79 78 77 77 77 77 75 75 76 65 60 59 59 62 64 65 70 72 70 69 69 69 69 69 69 69
82 81 81 80 80 80 80 79 79 79 79 80 80 80 80 80 79 79 78 77 77 76 76 74 75 61 59 58 58 60 62 67 68 69 69 69 69 69 69 69 70 70
82 81 81 80 80 80 79 79 79 79 80 80 79 79 79 79 79 78 78 77 76 76 75 75 71 59 58 56 58 59 61 68 69 69 69 68 68 68 69 69 70 69
83 82 81 80 80 80 80 80 80 80 80 80 79 79 79 79 79 78 77 77 76 75 76 74 69 59 55 55 57 58 63 69 69 69 69 68 67 67 67 68 69 74
83 82 82 81 80 80 81 80 80 80 80 79 80 80 79 79 77 77 75 75 76 76 71 73 70 61 54 56 57 58 63 70 69 69 68 67 66 65 65 66 67 73
83 82 82 82 81 81 81 81 81 80 80 79 79 80 78 76 75 75 74 74 75 76 74 74 70 66 59 56 57 57 60 71 69 68 67 66 65 65 65 65 66 68
MSLP
1010.90 1011.26 1011.66 1011.93 1012.05 1012.14 1012.41 1012.78 1012.97 1013.26 1013.49 1013.61 1013.93 1014.02 1014.09 1014.09 1014.22 1014.46 1014.61 1014.85 1015.02 1015.26 1015.46 1015.58 1015.73 1015.93 1016.05 1016.22 1016.46 1016.70 1016.85 1016.97 1017.09 1017.22 1017.38 1017.53 1017.70 1017.85 1018.09 1018.22 1018.34 1018.34
1010.53 1010.82 1011.17 1011.49 1011.73 1011.85 1012.02 1012.14 1012.49 1012.78 1013.05 1013.17 1013.26 1013.41 1013.58 1013.73 1013.93 1014.09 1014.41 1014.70 1014.82 1015.02 1015.14 1015.38 1015.53 1015.70 1015.90 1016.09 1016.34 1016.61 1016.82 1016.93 1017.09 1017.02 1017.26 1017.46 1017.49 1017.58 1017.73 1017.93 1018.09 1018.09
1010.17 1010.58 1010.93 1011.34 1011.49 1011.66 1011.78 1011.85 1012.09 1012.34 1012.58 1012.70 1012.82 1013.02 1013.29 1013.38 1013.70 1013.85 1014.05 1014.29 1014.61 1014.82 1015.02 1015.14 1015.34 1015.49 1015.70 1015.90 1016.17 1016.46 1016.73 1016.90 1017.02 1016.97 1017.09 1017.26 1017.29 1017.46 1017.49 1017.66 1017.90 1018.02
1009.85 1010.09 1010.46 1010.78 1011.02 1011.29 1011.41 1011.73 1011.90 1012.09 1012.22 1012.53 1012.66 1012.73 1012.93 1013.14 1013.38 1013.66 1013.85 1014.05 1014.38 1014.66 1014.82 1014.97 1015.09 1015.29 1015.49 1015.70 1016.09 1016.38 1016.49 1016.61 1016.61 1016.78 1016.97 1017.09 1017.17 1017.22 1017.38 1017.49 1017.66 1017.85
1009.49 1009.78 1010.05 1010.38 1010.61 1010.85 1011.14 1011.46 1011.66 1011.73 1011.90 1012.02 1012.26 1012.46 1012.73 1012.97 1013.26 1013.53 1013.73 1013.97 1014.17 1014.49 1014.66 1014.82 1014.90 1015.14 1015.34 1015.61 1015.93 1016.29 1016.38 1016.49 1016.53 1016.66 1016.85 1017.05 1017.05 1017.17 1017.26 1017.41 1017.61 1017.78
1009.09 1009.34 1009.66 1010.02 1010.29 1010.66 1010.97 1011.14 1011.22 1011.34 1011.53 1011.82 1011.90 1012.09 1012.38 1012.58 1012.85 1013.14 1013.41 1013.73 1013.97 1014.22 1014.41 1014.58 1014.82 1014.97 1015.17 1015.41 1015.73 1015.97 1016.14 1016.34 1016.38 1016.49 1016.70 1016.90 1017.02 1017.05 1017.09 1017.26 1017.49 1017.70
1008.85 1009.14 1009.46 1009.66 1010.02 1010.22 1010.53 1010.70 1010.82 1010.90 1011.02 1011.09 1011.49 1011.82 1011.97 1012.34 1012.58 1012.78 1013.05 1013.34 1013.66 1013.90 1014.14 1014.38 1014.61 1014.90 1014.97 1015.17 1015.46 1015.70 1015.82 1015.93 1016.09 1016.29 1016.49 1016.61 1016.73 1016.93 1016.93 1017.05 1017.29 1017.49
1008.38 1008.66 1008.97 1009.34 1009.70 1009.93 1010.22 1010.34 1010.46 1010.49 1010.53 1010.90 1011.17 1011.29 1011.53 1011.90 1012.22 1012.41 1012.66 1012.97 1013.34 1013.58 1013.82 1014.05 1014.29 1014.53 1014.73 1014.90 1015.14 1015.34 1015.53 1015.58 1015.73 1015.97 1016.22 1016.38 1016.49 1016.66 1016.78 1016.90 1017.09 1017.34
1007.90 1008.29 1008.61 1009.02 1009.38 1009.58 1009.82 1009.90 1010.02 1010.14 1010.17 1010.53 1010.73 1011.02 1011.17 1011.41 1011.73 1012.05 1012.34 1012.70 1013.02 1013.26 1013.58 1013.85 1014.05 1014.29 1014.38 1014.53 1014.70 1014.90 1015.09 1015.26 1015.38 1015.61 1015.85 1016.17 1016.41 1016.49 1016.66 1016.78 1017.05 1017.17
1007.49 1007.82 1008.26 1008.58 1008.93 1009.05 1009.34 1009.41 1009.53 1009.73 1009.82 1010.09 1010.34 1010.61 1010.97 1011.05 1011.29 1011.66 1012.05 1012.46 1012.78 1013.05 1013.34 1013.61 1013.90 1013.97 1014.02 1014.05 1014.17 1014.29 1014.53 1014.82 1015.02 1015.22 1015.41 1015.70 1016.02 1016.29 1016.46 1016.61 1016.82 1017.02
1007.02 1007.34 1007.78 1008.09 1008.38 1008.53 1008.82 1008.93 1009.14 1009.29 1009.46 1009.73 1010.05 1010.38 1010.49 1010.82 1011.09 1011.29 1011.78 1012.14 1012.46 1012.73 1013.14 1013.41 1013.46 1013.46 1013.61 1013.73 1013.78 1013.85 1014.09 1014.34 1014.66 1014.93 1015.26 1015.53 1015.70 1015.90 1016.02 1016.22 1016.49 1016.70
1006.41 1006.73 1007.14 1007.46 1007.78 1008.05 1008.26 1008.46 1008.61 1008.85 1009.09 1009.34 1009.58 1009.97 1010.22 1010.46 1010.78 1011.14 1011.34 1011.70 1012.02 1012.41 1012.73 1012.93 1012.97 1012.97 1013.09 1013.29 1013.41 1013.58 1013.90 1014.14 1014.38 1014.78 1015.14 1015.38 1015.49 1015.58 1015.70 1015.85 1016.09 1016.34
1005.73 1006.02 1006.38 1006.82 1007.14 1007.41 1007.66 1007.97 1008.22 1008.38 1008.66 1008.97 1009.09 1009.46 1009.85 1010.26 1010.49 1010.78 1010.90 1011.29 1011.73 1012.09 1012.41 1012.53 1012.58 1012.58 1012.78 1013.02 1013.17 1013.38 1013.70 1014.09 1014.46 1014.73 1014.97 1015.17 1015.29 1015.41 1015.53 1015.61 1015.73 1015.93
1004.93 1005.26 1005.66 1006.05 1006.46 1006.85 1007.22 1007.46 1007.70 1008.02 1008.26 1008.49 1008.82 1009.22 1009.46 1009.70 1010.09 1010.38 1010.61 1011.02 1011.38 1011.73 1011.93 1012.05 1012.17 1012.26 1012.41 1012.61 1012.82 1013.09 1013.58 1014.02 1014.34 1014.61 1014.90 1015.09 1015.26 1015.46 1015.49 1015.53 1015.58 1015.66
1004.34 1004.73 1005.05 1005.49 1005.93 1006.41 1006.82 1007.09 1007.34 1007.61 1007.85 1008.17 1008.46 1008.73 1008.90 1009.14 1009.46 1009.97 1010.53 1010.90 1011.14 1011.38 1011.61 1011.66 1011.78 1011.78 1011.85 1012.14 1012.58 1013.05 1013.46 1013.93 1014.22 1014.49 1014.73 1015.02 1015.29 1015.34 1015.29 1015.29 1015.34 1015.38
1003.85 1004.26 1004.70 1005.09 1005.61 1005.97 1006.26 1006.61 1006.97 1007.26 1007.58 1007.85 1008.09 1008.26 1008.49 1008.78 1009.22 1009.58 1010.02 1010.41 1010.82 1011.09 1011.22 1011.34 1011.29 1011.22 1011.22 1011.58 1012.05 1012.73 1013.41 1013.85 1014.17 1014.29 1014.41 1014.66 1014.90 1014.97 1015.05 1015.02 1014.97 1015.05
1003.58 1003.90 1004.26 1004.78 1004.97 1005.38 1005.78 1006.22 1006.58 1006.90 1007.22 1007.49 1007.73 1007.97 1008.22 1008.49 1008.85 1009.34 1009.61 1009.90 1010.26 1010.61 1010.85 1010.85 1010.73 1010.53 1010.78 1011.41 1012.05 1012.82 1013.70 1014.49 1014.49 1014.17 1014.14 1014.29 1014.49 1014.73 1014.85 1014.85 1014.82 1014.78
1002.93 1003.34 1003.90 1004.17 1004.58 1004.97 1005.26 1005.66 1006.14 1006.58 1006.90 1007.14 1007.38 1007.70 1007.85 1008.09 1008.58 1008.82 1009.05 1009.38 1009.73 1010.02 1010.26 1010.17 1010.09 1009.97 1010.46 1011.17 1012.22 1013.26 1013.70 1013.38 1013.14 1013.73 1014.02 1014.17 1014.34 1014.46 1014.46 1014.53 1014.61 1014.70
1002.34 1002.90 1003.26 1003.66 1003.93 1004.26 1004.73 1005.29 1005.78 1006.17 1006.53 1006.82 1007.05 1007.02 1007.34 1007.85 1008.05 1008.34 1008.66 1008.82 1009.14 1009.46 1009.61 1009.58 1009.58 1009.61 1010.22 1011.14 1012.41 1012.97 1012.78 1012.17 1012.93 1013.26 1013.49 1013.66 1013.78 1013.97 1014.17 1014.34 1014.49 1014.66
1001.78 1002.26 1002.73 1002.97 1003.29 1003.82 1004.34 1004.85 1005.29 1005.66 1005.82 1006.02 1006.29 1006.70 1007.14 1007.41 1007.58 1007.82 1008.02 1008.34 1008.49 1008.73 1008.97 1009.09 1009.17 1009.29 1010.05 1011.26 1012.05 1011.93 1011.49 1012.17 1013.02 1012.97 1013.09 1013.29 1013.41 1013.66 1013.90 1014.14 1014.29 1014.46
1001.22 1001.61 1002.05 1002.41 1002.90 1003.34 1003.85 1004.26 1004.61 1005.02 1005.41 1005.66 1005.93 1006.29 1006.58 1006.73 1006.90 1007.26 1007.46 1007.66 1007.97 1008.22 1008.58 1008.78 1008.70 1009.09 1010.02 1010.97 1011.17 1011.05 1011.22 1012.78 1012.66 1012.53 1012.90 1013.09 1013.22 1013.29 1013.53 1013.78 1013.93 1014.02
1000.46 1001.02 1001.46 1001.97 1002.46 1002.90 1003.38 1003.73 1004.02 1004.38 1004.82 1005.05 1005.41 1005.61 1005.73 1005.97 1006.29 1006.53 1006.93 1007.26 1007.49 1007.82 1008.17 1008.46 1008.53 1009.09 1009.90 1010.41 1010.70 1011.02 1011.38 1012.02 1012.38 1012.70 1012.73 1012.90 1012.97 1013.09 1013.22 1013.34 1013.46 1013.66
999.70 1000.29 1000.90 1001.41 1001.85 1002.41 1002.82 1003.14 1003.49 1003.85 1004.14 1004.34 1004.93 1005.14 1005.46 1005.70 1005.82 1005.97 1006.22 1006.73 1007.14 1007.49 1007.90 1008.22 1008.61 1009.09 1009.58 1010.05 1010.49 1010.85 1011.53 1011.85 1011.90 1012.22 1012.49 1012.73 1012.78 1012.82 1012.93 1013.05 1013.26 1013.41
998.97 999.53 1000.22 1000.73 1001.26 1001.73 1002.05 1002.38 1002.66 1002.97 1003.29 1003.53 1004.17 1004.58 1004.93 1004.97 1005.22 1005.70 1006.02 1006.29 1006.78 1007.22 1007.38 1007.93 1008.41 1008.93 1009.17 1009.61 1010.02 1010.29 1010.46 1010.93 1011.41 1011.82 1012.17 1012.49 1012.70 1012.78 1012.90 1013.02 1013.05 1013.09
998.29 998.85 999.46 1000.05 1000.61 1000.93 1001.29 1001.82 1002.14 1002.41 1002.61 1003.02 1003.38 1003.78 1004.22 1004.53 1004.97 1005.49 1005.85 1006.17 1006.34 1006.61 1006.90 1007.29 1007.82 1008.46 1008.82 1009.17 1009.53 1009.78 1010.26 1010.53 1011.05 1011.66 1012.26 1012.46 1012.53 1012.70 1012.82 1012.93 1012.97 1012.85
997.70 998.26 998.70 999.26 999.82 1000.26 1000.66 1001.02 1001.38 1001.97 1002.41 1002.82 1003.14 1003.41 1003.97 1004.38 1004.78 1005.22 1005.70 1006.02 1006.09 1006.34 1006.61 1006.78 1007.53 1008.41 1009.02 1009.05 1009.34 1009.78 1009.97 1010.17 1010.73 1011.41 1011.90 1012.14 1012.38 1012.58 1012.90 1012.97 1012.93 1012.90
Wind_Speed
13 12 12 11 11 10 10 10 9 10 10 9 10 10 11 10 10 11 11 9 9 9 9 9 7 7 7 6 6 6 6 7 6 6 6 6 6 6 5 4 4 4
15 13 11 10 9 9 9 10 10 10 10 10 10 10 10 10 11 11 11 10 10 10 9 9 8 8 7 6 6 7 6 6 7 4 6 6 6 6 5 5 5 4
14 13 13 13 12 12 12 10 10 10 10 11 10 10 10 10 11 11 11 11 11 10 9 9 8 8 7 7 6 6 7 6 7 5 6 7 6 6 6 5 5 5
15 15 14 13 12 12 11 10 10 9 9 10 11 10 10 9 10 11 11 11 11 10 9 9 10 8 8 7 6 6 6 7 7 6 6 5 6 6 6 5 4 4
15 14 13 12 11 11 10 11 12 11 12 12 10 10 10 10 10 11 11 10 10 10 9 10 9 9 8 8 7 7 6 7 6 6 7 7 6 6 5 5 5 5
14 13 13 13 12 12 12 12 12 12 12 12 13 10 11 11 11 12 12 12 11 11 11 10 9 8 8 8 8 7 7 7 7 7 7 8 7 6 5 5 5 5
15 14 14 12 12 13 13 13 12 12 13 12 10 12 11 12 12 13 13 12 12 11 11 11 10 9 8 8 8 8 8 7 7 8 8 7 7 7 5 6 6 6
15 14 13 12 13 13 13 13 13 13 13 11 13 12 12 13 13 12 12 13 12 12 11 11 10 10 9 8 9 10 9 7 9 9 8 7 7 8 7 6 6 7
15 14 14 14 15 14 14 14 13 13 12 13 13 12 11 12 13 12 13 13 12 12 11 11 10 10 9 10 10 11 11 10 9 9 9 8 8 7 7 6 6 6
15 14 15 15 16 14 16 15 14 13 13 13 13 11 12 12 12 13 12 13 13 12 12 11 10 10 11 11 13 13 12 12 11 10 10 9 8 7 7 7 8 6
16 15 16 17 17 15 16 16 15 14 13 14 12 13 13 12 11 11 12 13 13 13 12 11 12 12 12 12 12 11 12 11 10 10 9 8 8 8 8 8 8 7
17 16 17 18 17 16 17 16 15 14 14 13 13 14 13 13 13 11 12 14 13 12 12 12 12 13 13 13 13 12 11 10 10 9 8 8 8 8 8 7 8 8
18 18 17 17 17 16 15 15 15 15 14 14 13 14 13 13 12 13 12 13 12 11 12 12 13 13 13 12 12 12 11 10 9 8 8 8 8 8 7 7 8 7
18 17 17 17 16 15 15 15 15 14 14 13 12 14 14 14 14 14 12 11 11 12 11 12 12 13 12 12 12 12 10 9 9 8 8 7 6 6 6 7 7 7
16 15 15 15 16 15 16 15 15 14 13 13 13 13 12 13 13 12 12 11 11 11 12 12 13 13 12 12 12 11 9 8 8 8 9 8 5 6 7 8 7 8
16 15 15 15 16 16 16 16 15 14 13 13 13 14 13 12 12 12 12 13 13 12 11 11 12 11 14 19 15 10 9 7 6 8 9 7 8 8 8 8 9 8
15 15 15 16 17 16 15 15 15 14 13 13 13 13 14 13 12 12 13 13 13 13 13 12 12 12 18 17 17 14 5 1 4 8 7 7 8 9 9 9 7 8
16 16 16 17 16 16 16 15 14 14 14 14 13 14 13 12 12 13 13 13 12 13 14 14 13 16 18 17 16 15 12 12 10 7 7 7 7 9 9 8 8 7
16 16 17 16 17 17 15 13 14 14 14 14 15 14 12 13 13 13 13 13 13 14 15 14 13 16 17 16 16 20 22 19 9 9 9 9 9 9 8 7 6 7
16 17 17 17 16 15 14 15 15 16 15 14 13 12 12 13 14 15 13 14 14 15 14 13 14 15 16 16 22 25 28 18 4 8 6 7 8 8 7 7 7 7
17 17 18 17 16 15 15 16 16 14 15 14 13 13 14 15 15 15 14 14 14 13 12 13 12 14 16 19 24 25 25 16 12 9 7 6 6 7 8 8 8 8
18 17 17 16 16 16 16 17 16 16 16 14 13 12 12 12 12 12 13 13 13 13 13 13 9 15 17 21 23 22 21 15 13 12 8 7 7 7 8 8 8 8
18 18 17 17 17 17 17 17 16 16 14 12 13 13 13 13 14 13 12 12 13 12 13 11 7 14 20 21 21 22 17 13 13 11 9 7 7 7 8 7 7 7
18 18 18 17 17 18 18 16 16 14 15 13 15 14 14 14 12 10 10 11 12 13 12 12 8 14 22 22 23 24 22 16 12 12 11 8 5 4 5 6 7 12
17 18 18 18 18 18 17 17 16 15 14 13 13 13 13 11 10 10 9 9 11 12 15 15 11 14 21 23 24 25 20 12 11 9 9 9 7 5 5 6 7 9
16 18 18 18 18 17 16 16 14 13 13 13 12 11 10 9 9 9 11 10 10 12 12 13 11 10 15 22 23 22 22 12 9 9 11 9 6 6 6 5 6 7
Wind_Direction
199 197 196 195 198 196 190 188 185 186 188 185 185 188 187 187 180 184 187 186 186 185 187 186 184 183 187 179 177 181 182 184 183 179 178 171 179 178 178 172 189 181
199 198 197 196 199 198 197 192 186 186 187 188 189 187 189 180 185 183 185 187 187 193 189 184 184 184 182 178 180 180 187 184 188 178 176 181 190 181 192 179 191 206
197 197 196 196 198 197 195 196 190 188 188 190 188 187 186 184 183 187 185 185 189 193 192 188 186 188 181 177 178 181 186 187 191 188 177 192 190 186 201 186 186 197
199 197 197 198 198 197 194 193 193 188 187 189 192 188 184 184 183 186 187 186 188 192 192 190 192 189 186 177 176 187 190 190 192 182 187 197 198 191 197 189 192 193
198 197 197 198 198 197 194 196 195 190 190 191 189 187 186 184 183 185 187 190 189 192 192 195 192 191 185 177 176 185 191 190 189 185 189 197 205 194 202 186 197 207
199 198 196 196 195 194 197 200 199 194 191 190 192 186 189 186 185 186 187 189 190 191 194 193 192 192 184 179 178 190 186 188 191 185 191 196 201 205 199 192 195 204
197 196 196 196 197 198 200 200 200 198 197 194 185 192 186 189 189 190 189 191 190 192 193 192 191 188 186 181 183 191 193 191 189 189 193 199 193 202 206 194 198 204
196 195 195 195 197 200 202 201 201 201 198 191 196 193 189 190 191 191 192 191 194 195 194 194 192 187 183 181 190 193 196 194 197 193 196 197 191 198 199 199 196 205
193 195 194 196 199 201 204 202 203 202 196 197 196 195 194 193 191 191 191 192 195 196 193 194 191 188 186 186 193 195 198 200 200 199 200 198 196 198 193 191 198 205
193 193 193 197 201 203 204 204 202 201 199 199 196 193 195 198 193 191 189 193 196 195 194 191 190 190 191 194 196 198 198 200 200 202 204 202 196 193 191 190 198 202
194 192 195 198 202 203 205 204 203 201 200 200 194 197 197 195 197 191 191 193 197 194 190 191 192 194 195 198 203 203 202 200 200 202 204 202 198 193 191 191 195 202
194 193 196 199 201 203 204 204 204 201 200 200 197 198 196 198 195 193 195 197 196 192 190 193 195 199 199 199 203 205 204 203 201 199 201 205 204 198 195 191 192 197
194 195 195 198 200 202 203 204 205 203 200 200 198 200 197 197 198 198 199 196 195 189 191 193 199 202 202 201 204 206 203 201 200 197 200 206 209 206 203 196 198 196
195 194 195 197 198 200 202 204 205 204 202 199 196 200 202 199 197 200 198 194 192 192 192 194 199 204 204 203 203 204 201 200 199 199 203 207 208 211 208 208 204 199
192 194 195 195 196 198 201 204 204 204 202 199 198 201 203 203 199 196 193 195 194 192 192 196 201 205 204 201 200 200 199 197 196 201 207 205 197 208 210 209 207 206
191 192 193 194 196 199 201 201 203 202 201 201 200 202 203 201 199 194 195 195 193 194 194 198 205 208 207 200 194 190 192 192 191 206 207 200 198 206 207 207 209 205
190 193 191 195 199 199 200 201 201 201 202 202 202 202 202 199 196 195 197 197 195 193 196 202 208 211 205 195 191 177 140 63 234 217 208 199 198 206 211 209 207 207
192 191 191 196 196 200 200 200 199 200 202 202 202 202 202 198 196 199 199 196 196 196 200 205 210 211 201 190 175 116 104 205 209 206 203 204 206 211 215 208 206 204
191 190 194 195 197 198 197 196 198 201 202 201 204 204 199 198 200 198 199 197 196 198 204 206 212 207 199 179 139 130 187 207 198 204 199 201 205 210 210 204 200 200
190 192 194 196 195 194 193 194 197 201 200 202 204 201 199 201 202 201 198 197 199 200 204 206 210 204 188 154 139 163 195 201 219 221 214 211 206 202 197 198 198 192
191 193 196 194 191 191 192 195 197 198 199 201 200 200 200 202 202 201 201 199 198 199 202 205 212 189 166 150 161 175 187 172 222 221 215 210 201 197 197 198 199 196
191 193 194 191 190 190 193 196 195 195 197 196 198 202 205 204 204 203 201 197 196 196 199 207 199 164 156 158 168 178 177 176 206 218 215 207 202 196 199 200 198 193
191 191 191 189 189 190 194 195 194 194 196 191 196 200 200 201 203 202 198 194 193 193 197 200 176 160 157 162 166 173 171 193 204 207 211 206 205 200 198 195 192 186
190 189 189 189 187 192 193 194 193 193 195 189 194 197 200 202 199 196 193 192 188 192 191 192 172 167 162 166 168 175 183 189 194 199 207 206 199 199 193 196 189 173
189 189 189 187 189 192 190 189 191 192 191 187 195 195 199 195 188 189 184 184 189 190 188 187 173 174 170 169 178 185 185 187 185 189 195 210 194 189 188 185 195 181
189 189 188 187 189 188 188 189 188 187 186 186 190 191 188 180 177 177 178 185 182 188 191 186 164 163 179 177 185 186 185 180 174 178 198 199 175 173 179 206 191 186